Location: Christianberg
(48.9086°N, 14.0209°E)
Time: 22:29:52
(UTC+00:00)

OE (NEXTSAT) - Pass Details

Date: 20 June 2021
Orbit: 425 x 430 km, 46.0° (Epoch: 04 August)

Event Time Altitude Azimuth Distance (km) Brightness Sun altitude
Exits shadow 01:22:20 11° 255° (WSW) 1,458 6.6 -11.5°
Maximum altitude 01:25:32 52° 179° (S) 536 4.4 -11.2°
Drops below altitude 10° 01:28:53 10° 102° (ESE) 1,519 7.4 -10.9°
Sets 01:31:01 0° 97° (E) 2,383 8.5 -10.7°
